AirNav   ATP
 
 867 users online  

19IN Resler Airport
Churubusco, Indiana, USA

GOING TO CHURUBUSCO?


FAA INFORMATION EFFECTIVE 24 MAY 2018

Location

FAA Identifier: 19IN
Lat/Long: 41-17-04.0000N / 085-21-39.0000W
41-17.066667N / 085-21.650000W
41.2844444 / -85.3608333
(estimated)
Elevation: 920 ft. / 280 m (estimated)
From city: 4 miles NNW of CHURUBUSCO, IN
Time zone: UTC -4 (UTC -5 during Standard Time)
Zip code: 46723

Airport Operations

Airport use: Private use. Permission required prior to landing
Activation date: 04/2011
Control tower: no
ARTCC: CHICAGO CENTER
FSS: TERRE HAUTE FLIGHT SERVICE STATION
Attendance: UNATNDD
Wind indicator: yes
Segmented circle: no

Airport Communications

WX AWOS-3P at C62 (12 nm N): 119.925 (260-347-2967)
WX AWOS-3 at SMD (13 nm SE): 124.55 (260-490-4030)
WX AWOS-3 at GWB (13 nm E): 124.15 (260-925-8225)
WX ASOS at FWA (20 nm S): PHONE 260-479-6621

Nearby radio navigation aids

VOR radial/distance  VOR name  Freq  Var
OLKr073/(6.6)WEBSTER LAKE VOR110.4003W
FWAr343/19.9FORT WAYNE VORTAC117.8006W
GSHr116/33.3GOSHEN VORTAC113.7000E

 
NDB name  Hdg/Dist  Freq  Var  ID
HUNTINGTON013/26.241703WHHG .... .... --.
STURGIS178/31.938204WIRS .. .-. ...

Airport Services

Runway Information

Runway 11/29

Dimensions: 1500 x 100 ft. / 457 x 30 m
Surface: turf
RUNWAY 11  RUNWAY 29
Traffic pattern: rightleft

Airport Ownership and Management from official FAA records

Ownership: Privately-owned
Owner: DAVID & LARAMIE RESLER
4719 S 300 E
CHURUBUSCO, IN 46723
Phone 260-693-6191
Manager: DAVID & LARAMIE RESLER
4719 S 300 E
CHURUBUSCO, IN 46723
Phone 260-693-6191

Airport Operational Statistics

Aircraft based on the field: 1
Single engine airplanes: 1
    

Instrument Procedures

There are no published instrument procedures at 19IN.

Some nearby airports with instrument procedures:

C62 - Kendallville Municipal Airport (12 nm N)
KSMD - Smith Field Airport (13 nm SE)
KGWB - De Kalb County Airport (13 nm E)
KFWA - Fort Wayne International Airport (20 nm S)
KASW - Warsaw Municipal Airport (22 nm W)
 
Loc | Ops | Rwys | IFR | FBO | Links
Com | Nav | Svcs | Stats | Notes

AirNav Hotels Sweepstakes
 
Aerial photo
No photo
 
Sectional chart

 
Airport distance calculator
Flying to Resler Airport? Find the distance to fly.

From to 19IN

Sunrise and sunset
Times for 26-May-2018
 Local
(UTC-4)
 Zulu
(UTC)
Morning civil twilight05:4209:42
Sunrise06:1510:15
Sunset21:0201:02
Evening civil twilight21:3501:35

Current date and time
Zulu (UTC)  26-May-2018 20:42:56
Local (UTC-4)  26-May-2018 16:42:56
 
METAR
KGWB 
13nm E 
262020Z AUTO 00000KT 10SM SCT034 SCT045 28/19 A2979 RMK AO2
KFWA 
20nm S 
261954Z 28006KT 10SM SCT050 BKN120 28/19 A2979 RMK AO2 SLP080 T02780194
KASW 
22nm W 
262015Z AUTO 28003KT 10SM SCT047 SCT060 SCT085 28/18 A2977 RMK AO2
KGSH 
24nm NW 
261953Z AUTO 27010G15KT 6SM HZ SCT046 29/18 A2977 RMK AO2 SLP075 T02940183
KANQ 
25nm NE 
262015Z AUTO 30008G14KT 10SM BKN043 BKN049 BKN060 27/19 A2978 RMK AO2 TSNO
KHHG 
26nm S 
262015Z AUTO 33006KT 10SM SCT043 SCT050 BKN060 28/19 A2977 RMK AO2 LTG DSNT SE T02810189
TAF
KFWA 
20nm S 
261720Z 2618/2718 23009KT P6SM BKN100 FM262300 29005KT P6SM SCT250 FM270200 VRB02KT P6SM SKC
NOTAMs
Click for the latest NOTAMs
NOTAMs are issued by the DoD/FAA and will open in a separate window not controlled by AirNav.

 

 
 

Would you like to see your business listed on this page?

 If your business provides an interesting product or service to pilots, flight crews, aircraft, or users of the Resler Airport, you should consider listing it here.  To start the listing process, click on the button below
 
Add a business
 

Other Pages about Resler Airport

Update a link
 
Copyright © AirNav, LLC. All rights reserved. Privacy Policy  Contact